QPF
0.06 0.03 0.02 0.02 0.02 0.02 0.03 0.03 0.02 0.02 0.02 0.02 0.02 0.02 0.02 0.02 0.02 0.02 0.02 0.02 0.02 0.02 0.02 0.03 0.04 0.04 0.03 0.03 0.04 0.04 0.05 0.04 0.04 0.04 0.04 0.04 0.03 0.03 0.05 0.07 0.06 0.04 0.03
0.07 0.04 0.03 0.02 0.02 0.02 0.02 0.02 0.02 0.02 0.02 0.02 0.02 0.02 0.03 0.02 0.02 0.01 0.01 0.02 0.03 0.02 0.02 0.03 0.03 0.03 0.03 0.03 0.03 0.03 0.03 0.04 0.03 0.03 0.03 0.03 0.03 0.03 0.03 0.05 0.06 0.05 0.03
0.04 0.03 0.02 0.01 0.01 0.02 0.02 0.02 0.02 0.02 0.03 0.03 0.03 0.03 0.03 0.03 0.03 0.02 0.02 0.02 0.02 0.02 0.02 0.03 0.03 0.03 0.03 0.04 0.03 0.02 0.02 0.02 0.02 0.03 0.03 0.03 0.03 0.02 0.02 0.03 0.04 0.05 0.04
0.05 0.04 0.02 0.01 0.01 0.01 0.02 0.02 0.02 0.03 0.03 0.03 0.03 0.03 0.04 0.04 0.04 0.04 0.03 0.02 0.02 0.02 0.03 0.03 0.02 0.02 0.02 0.03 0.03 0.03 0.02 0.02 0.02 0.02 0.03 0.03 0.03 0.03 0.02 0.02 0.02 0.03 0.04
0.03 0.04 0.03 0.02 0.02 0.02 0.02 0.03 0.03 0.03 0.03 0.03 0.03 0.03 0.04 0.04 0.03 0.03 0.03 0.02 0.01 0.01 0.02 0.02 0.02 0.03 0.02 0.02 0.02 0.03 0.03 0.03 0.03 0.03 0.02 0.03 0.03 0.02 0.02 0.02 0.02 0.03 0.04
0.02 0.01 0.02 0.02 0.01 0.02 0.02 0.04 0.04 0.04 0.03 0.03 0.03 0.03 0.02 0.02 0.03 0.03 0.03 0.02 0.01 0.02 0.02 0.02 0.02 0.03 0.03 0.02 0.02 0.02 0.02 0.02 0.03 0.03 0.02 0.02 0.02 0.02 0.02 0.02 0.02 0.02 0.03
0.02 0.01 0.01 0.01 0.01 0.02 0.02 0.03 0.03 0.03 0.03 0.02 0.02 0.02 0.02 0.02 0.03 0.03 0.04 0.02 0.02 0.02 0.02 0.02 0.02 0.02 0.03 0.03 0.03 0.02 0.02 0.02 0.02 0.02 0.02 0.02 0.01 0.01 0.01 0.01 0.01 0.01 0.01
0.02 0.02 0.01 0.01 0.02 0.02 0.02 0.01 0.02 0.02 0.03 0.03 0.02 0.02 0.02 0.02 0.03 0.04 0.04 0.03 0.02 0.02 0.02 0.02 0.02 0.02 0.03 0.04 0.04 0.03 0.03 0.02 0.02 0.02 0.02 0.01 0.01 0.01 0.01 0.01 0.01 0.01 0.01
0.02 0.01 0.01 0.01 0.02 0.02 0.02 0.02 0.01 0.02 0.02 0.03 0.03 0.02 0.02 0.02 0.04 0.04 0.04 0.03 0.02 0.02 0.02 0.02 0.02 0.02 0.03 0.04 0.04 0.04 0.03 0.03 0.03 0.02 0.02 0.02 0.02 0.02 0.01 0.01 0.01 0.01 0.01
0.01 0.01 0.01 0.01 0.01 0.02 0.03 0.03 0.02 0.02 0.03 0.03 0.03 0.03 0.03 0.03 0.04 0.04 0.04 0.03 0.03 0.02 0.02 0.02 0.03 0.03 0.03 0.03 0.04 0.04 0.04 0.03 0.03 0.03 0.02 0.02 0.02 0.02 0.02 0.01 0.01 0.01 0.01
0.00 0.00 0.00 0.00 0.00 0.01 0.01 0.02 0.03 0.03 0.03 0.03 0.03 0.02 0.02 0.02 0.03 0.03 0.03 0.03 0.02 0.02 0.02 0.02 0.03 0.04 0.04 0.04 0.04 0.04 0.04 0.04 0.03 0.03 0.03 0.02 0.02 0.02 0.02 0.01 0.01 0.01 0.01
0.00 0.00 0.00 0.00 0.00 0.00 0.01 0.01 0.02 0.02 0.02 0.03 0.03 0.03 0.03 0.03 0.02 0.02 0.02 0.03 0.03 0.02 0.02 0.02 0.03 0.04 0.04 0.04 0.04 0.04 0.04 0.05 0.04 0.03 0.03 0.02 0.02 0.02 0.02 0.02 0.02 0.02 0.02
0.00 0.01 0.01 0.01 0.01 0.01 0.01 0.01 0.01 0.02 0.02 0.02 0.02 0.02 0.02 0.02 0.02 0.03 0.03 0.03 0.03 0.02 0.02 0.02 0.02 0.02 0.03 0.03 0.03 0.04 0.04 0.04 0.04 0.03 0.03 0.02 0.02 0.01 0.01 0.02 0.02 0.01 0.01
0.01 0.01 0.01 0.01 0.02 0.02 0.02 0.02 0.01 0.02 0.02 0.02 0.02 0.01 0.01 0.01 0.01 0.01 0.02 0.02 0.03 0.02 0.02 0.01 0.01 0.01 0.01 0.02 0.02 0.03 0.03 0.03 0.03 0.03 0.03 0.03 0.02 0.02 0.02 0.02 0.01 0.01 0.01
0.01 0.01 0.01 0.01 0.01 0.01 0.01 0.01 0.01 0.01 0.01 0.02 0.02 0.01 0.01 0.01 0.01 0.01 0.01 0.02 0.02 0.02 0.01 0.01 0.01 0.01 0.01 0.01 0.02 0.02 0.03 0.03 0.03 0.03 0.03 0.03 0.03 0.03 0.02 0.02 0.02 0.01 0.01
0.02 0.02 0.01 0.01 0.01 0.01 0.01 0.01 0.01 0.01 0.01 0.01 0.01 0.01 0.01 0.01 0.01 0.01 0.01 0.01 0.02 0.02 0.02 0.01 0.01 0.01 0.01 0.01 0.02 0.02 0.02 0.03 0.03 0.03 0.03 0.03 0.03 0.02 0.02 0.02 0.02 0.02 0.01
0.02 0.02 0.01 0.01 0.01 0.01 0.01 0.01 0.01 0.00 0.00 0.00 0.00 0.01 0.01 0.00 0.00 0.00 0.01 0.01 0.02 0.02 0.02 0.01 0.01 0.01 0.01 0.01 0.01 0.02 0.02 0.02 0.02 0.03 0.03 0.03 0.02 0.02 0.02 0.02 0.02 0.02 0.02
0.02 0.02 0.02 0.01 0.01 0.01 0.01 0.01 0.01 0.01 0.00 0.00 0.00 0.01 0.01 0.01 0.01 0.01 0.02 0.02 0.02 0.03 0.02 0.02 0.01 0.01 0.01 0.01 0.01 0.01 0.01 0.02 0.02 0.02 0.03 0.03 0.03 0.02 0.02 0.02 0.02 0.02 0.02
0.01 0.01 0.01 0.01 0.01 0.01 0.01 0.01 0.01 0.01 0.01 0.01 0.00 0.00 0.01 0.01 0.01 0.02 0.02 0.02 0.02 0.03 0.02 0.02 0.02 0.02 0.02 0.02 0.02 0.02 0.02 0.02 0.02 0.02 0.02 0.02 0.02 0.02 0.02 0.02 0.02 0.02 0.02
0.01 0.01 0.01 0.01 0.01 0.01 0.01 0.01 0.01 0.01 0.01 0.01 0.01 0.01 0.01 0.01 0.01 0.01 0.01 0.01 0.02 0.02 0.03 0.02 0.02 0.02 0.02 0.02 0.02 0.02 0.02 0.02 0.02 0.02 0.02 0.02 0.02 0.02 0.02 0.02 0.02 0.03 0.02
0.01 0.01 0.01 0.01 0.01 0.01 0.01 0.01 0.01 0.01 0.01 0.01 0.01 0.01 0.02 0.02 0.02 0.02 0.02 0.01 0.02 0.02 0.03 0.03 0.03 0.02 0.02 0.02 0.02 0.02 0.02 0.02 0.02 0.02 0.02 0.02 0.02 0.02 0.02 0.03 0.03 0.03 0.03
0.01 0.01 0.01 0.01 0.01 0.01 0.01 0.01 0.01 0.02 0.02 0.02 0.01 0.02 0.02 0.02 0.02 0.02 0.02 0.02 0.02 0.02 0.02 0.03 0.03 0.02 0.02 0.03 0.03 0.03 0.03 0.02 0.02 0.02 0.02 0.02 0.02 0.02 0.02 0.02 0.02 0.02 0.02
0.01 0.01 0.01 0.01 0.01 0.01 0.01 0.01 0.01 0.02 0.02 0.02 0.02 0.02 0.02 0.02 0.02 0.02 0.02 0.02 0.02 0.02 0.02 0.02 0.02 0.02 0.02 0.02 0.02 0.02 0.02 0.02 0.02 0.02 0.02 0.02 0.02 0.02 0.02 0.02 0.02 0.02 0.02
0.01 0.01 0.01 0.01 0.01 0.01 0.01 0.01 0.01 0.01 0.01 0.01 0.01 0.01 0.02 0.02 0.02 0.02 0.02 0.02 0.02 0.02 0.01 0.02 0.01 0.01 0.01 0.01 0.01 0.01 0.01 0.01 0.01 0.02 0.02 0.02 0.02 0.01 0.02 0.02 0.02 0.02 0.02
0.00 0.00 0.00 0.01 0.01 0.01 0.01 0.01 0.01 0.01 0.01 0.01 0.01 0.01 0.02 0.02 0.02 0.02 0.02 0.02 0.02 0.01 0.01 0.01 0.01 0.01 0.01 0.01 0.01 0.01 0.01 0.01 0.01 0.02 0.02 0.02 0.02 0.02 0.02 0.02 0.02 0.01 0.02
0.00 0.00 0.00 0.01 0.01 0.01 0.01 0.01 0.01 0.01 0.01 0.01 0.01 0.01 0.01 0.01 0.01 0.01 0.01 0.01 0.01 0.01 0.01 0.01 0.01 0.01 0.01 0.01 0.01 0.01 0.01 0.01 0.01 0.02 0.03 0.03 0.02 0.02 0.02 0.02 0.02 0.02 0.02
MSLP
1012.72 1012.48 1012.39 1012.43 1012.56 1012.74 1012.95 1013.18 1013.43 1013.70 1014.00 1014.34 1014.71 1015.11 1015.53 1015.96 1016.38 1016.80 1017.19 1017.57 1017.95 1018.31 1018.68 1019.07 1019.47 1019.89 1020.34 1020.83 1021.35 1021.91 1022.51 1023.13 1023.77 1024.40 1025.00 1025.55 1026.00 1026.35 1026.59 1026.71 1026.73 1026.69 1026.61
1012.84 1012.48 1012.29 1012.22 1012.26 1012.37 1012.54 1012.74 1012.98 1013.26 1013.58 1013.95 1014.37 1014.81 1015.28 1015.76 1016.22 1016.66 1017.07 1017.45 1017.80 1018.14 1018.47 1018.80 1019.16 1019.54 1019.96 1020.42 1020.94 1021.51 1022.13 1022.78 1023.46 1024.13 1024.78 1025.36 1025.86 1026.24 1026.51 1026.67 1026.72 1026.70 1026.64
1013.08 1012.62 1012.31 1012.12 1012.05 1012.07 1012.15 1012.29 1012.49 1012.76 1013.08 1013.47 1013.92 1014.41 1014.92 1015.44 1015.95 1016.43 1016.86 1017.26 1017.61 1017.93 1018.24 1018.54 1018.86 1019.22 1019.61 1020.07 1020.58 1021.16 1021.79 1022.46 1023.16 1023.86 1024.52 1025.13 1025.65 1026.07 1026.38 1026.57 1026.66 1026.68 1026.64
1013.41 1012.87 1012.46 1012.16 1011.97 1011.86 1011.84 1011.89 1012.02 1012.24 1012.53 1012.91 1013.37 1013.88 1014.43 1014.99 1015.53 1016.05 1016.52 1016.93 1017.30 1017.62 1017.93 1018.23 1018.54 1018.89 1019.29 1019.74 1020.26 1020.84 1021.48 1022.15 1022.85 1023.55 1024.22 1024.84 1025.38 1025.82 1026.16 1026.40 1026.54 1026.60 1026.61
1013.83 1013.23 1012.73 1012.33 1012.01 1011.78 1011.63 1011.57 1011.60 1011.74 1011.98 1012.32 1012.75 1013.26 1013.82 1014.40 1014.97 1015.51 1016.00 1016.45 1016.84 1017.19 1017.51 1017.83 1018.16 1018.52 1018.93 1019.40 1019.93 1020.52 1021.16 1021.83 1022.52 1023.21 1023.87 1024.48 1025.02 1025.48 1025.86 1026.14 1026.33 1026.46 1026.52
1014.29 1013.67 1013.11 1012.61 1012.18 1011.82 1011.55 1011.36 1011.28 1011.31 1011.47 1011.74 1012.12 1012.59 1013.12 1013.69 1014.26 1014.82 1015.33 1015.80 1016.22 1016.60 1016.96 1017.32 1017.69 1018.09 1018.53 1019.03 1019.58 1020.18 1020.82 1021.48 1022.16 1022.82 1023.46 1024.06 1024.60 1025.07 1025.46 1025.79 1026.04 1026.23 1026.35
1014.77 1014.14 1013.54 1012.97 1012.44 1011.98 1011.58 1011.27 1011.07 1010.99 1011.04 1011.21 1011.51 1011.92 1012.40 1012.92 1013.47 1014.02 1014.54 1015.02 1015.47 1015.89 1016.30 1016.71 1017.13 1017.58 1018.07 1018.61 1019.19 1019.80 1020.44 1021.10 1021.75 1022.39 1023.00 1023.57 1024.10 1024.58 1025.00 1025.36 1025.67 1025.91 1026.09
1015.21 1014.59 1013.96 1013.35 1012.76 1012.20 1011.71 1011.29 1010.98 1010.78 1010.72 1010.78 1010.98 1011.29 1011.69 1012.15 1012.65 1013.16 1013.67 1014.17 1014.64 1015.10 1015.56 1016.02 1016.50 1017.01 1017.56 1018.14 1018.75 1019.38 1020.03 1020.67 1021.31 1021.92 1022.51 1023.06 1023.58 1024.06 1024.50 1024.89 1025.24 1025.54 1025.77
1015.57 1014.96 1014.33 1013.69 1013.06 1012.45 1011.89 1011.39 1010.98 1010.69 1010.51 1010.46 1010.55 1010.75 1011.05 1011.43 1011.86 1012.32 1012.80 1013.29 1013.78 1014.27 1014.78 1015.29 1015.84 1016.41 1017.01 1017.64 1018.28 1018.94 1019.59 1020.24 1020.86 1021.46 1022.03 1022.56 1023.07 1023.55 1024.00 1024.42 1024.80 1025.14 1025.42
1015.82 1015.22 1014.60 1013.95 1013.31 1012.68 1012.07 1011.52 1011.05 1010.67 1010.40 1010.25 1010.22 1010.31 1010.50 1010.78 1011.13 1011.54 1011.98 1012.46 1012.96 1013.47 1014.01 1014.58 1015.18 1015.80 1016.45 1017.12 1017.81 1018.49 1019.16 1019.81 1020.43 1021.02 1021.58 1022.11 1022.62 1023.10 1023.56 1024.00 1024.40 1024.76 1025.06
1015.95 1015.36 1014.74 1014.11 1013.47 1012.83 1012.22 1011.65 1011.13 1010.69 1010.35 1010.10 1009.97 1009.96 1010.04 1010.23 1010.50 1010.84 1011.25 1011.70 1012.20 1012.73 1013.31 1013.92 1014.56 1015.23 1015.92 1016.63 1017.34 1018.05 1018.74 1019.40 1020.04 1020.64 1021.20 1021.74 1022.25 1022.74 1023.21 1023.65 1024.06 1024.43 1024.74
1015.96 1015.36 1014.76 1014.14 1013.52 1012.90 1012.30 1011.72 1011.19 1010.71 1010.30 1009.99 1009.77 1009.66 1009.66 1009.76 1009.95 1010.24 1010.60 1011.03 1011.53 1012.08 1012.67 1013.31 1013.98 1014.69 1015.41 1016.15 1016.89 1017.63 1018.35 1019.04 1019.69 1020.32 1020.91 1021.47 1022.00 1022.50 1022.97 1023.41 1023.81 1024.17 1024.47
1015.86 1015.26 1014.66 1014.06 1013.46 1012.87 1012.29 1011.72 1011.18 1010.67 1010.23 1009.85 1009.56 1009.38 1009.29 1009.32 1009.45 1009.69 1010.02 1010.44 1010.93 1011.49 1012.10 1012.76 1013.46 1014.19 1014.94 1015.70 1016.47 1017.23 1017.98 1018.71 1019.40 1020.07 1020.70 1021.29 1021.84 1022.36 1022.83 1023.27 1023.65 1023.99 1024.25
1015.68 1015.07 1014.47 1013.88 1013.31 1012.73 1012.17 1011.61 1011.06 1010.54 1010.07 1009.64 1009.30 1009.05 1008.91 1008.88 1008.96 1009.16 1009.47 1009.88 1010.37 1010.94 1011.57 1012.24 1012.96 1013.71 1014.48 1015.26 1016.05 1016.85 1017.63 1018.40 1019.15 1019.86 1020.54 1021.17 1021.76 1022.30 1022.78 1023.21 1023.57 1023.87 1024.09
1015.45 1014.82 1014.21 1013.63 1013.06 1012.49 1011.94 1011.38 1010.83 1010.29 1009.78 1009.32 1008.94 1008.64 1008.45 1008.38 1008.44 1008.62 1008.92 1009.32 1009.83 1010.40 1011.05 1011.74 1012.47 1013.23 1014.01 1014.82 1015.64 1016.46 1017.28 1018.10 1018.90 1019.68 1020.41 1021.10 1021.73 1022.29 1022.78 1023.20 1023.53 1023.79 1023.96
1015.17 1014.52 1013.90 1013.31 1012.73 1012.16 1011.59 1011.02 1010.45 1009.89 1009.35 1008.86 1008.44 1008.11 1007.89 1007.80 1007.84 1008.02 1008.32 1008.74 1009.26 1009.85 1010.51 1011.22 1011.96 1012.74 1013.54 1014.36 1015.21 1016.06 1016.93 1017.80 1018.65 1019.49 1020.28 1021.02 1021.69 1022.28 1022.78 1023.19 1023.50 1023.71 1023.84
1014.87 1014.20 1013.55 1012.94 1012.33 1011.74 1011.15 1010.55 1009.95 1009.36 1008.79 1008.27 1007.82 1007.47 1007.24 1007.14 1007.19 1007.37 1007.69 1008.13 1008.66 1009.28 1009.96 1010.69 1011.45 1012.24 1013.06 1013.91 1014.77 1015.66 1016.57 1017.48 1018.39 1019.28 1020.12 1020.91 1021.61 1022.23 1022.74 1023.14 1023.44 1023.62 1023.71
1014.55 1013.85 1013.18 1012.52 1011.89 1011.25 1010.62 1009.99 1009.35 1008.72 1008.13 1007.58 1007.12 1006.76 1006.53 1006.44 1006.50 1006.70 1007.04 1007.51 1008.07 1008.71 1009.42 1010.16 1010.95 1011.76 1012.59 1013.46 1014.35 1015.27 1016.20 1017.16 1018.10 1019.03 1019.92 1020.74 1021.48 1022.11 1022.63 1023.04 1023.32 1023.49 1023.55
1014.22 1013.49 1012.78 1012.09 1011.41 1010.73 1010.05 1009.38 1008.70 1008.05 1007.43 1006.87 1006.41 1006.05 1005.83 1005.76 1005.84 1006.08 1006.44 1006.94 1007.53 1008.20 1008.92 1009.69 1010.49 1011.32 1012.17 1013.05 1013.96 1014.90 1015.86 1016.83 1017.81 1018.76 1019.67 1020.51 1021.26 1021.91 1022.44 1022.84 1023.13 1023.29 1023.35
1013.88 1013.13 1012.38 1011.65 1010.93 1010.21 1009.49 1008.78 1008.08 1007.40 1006.77 1006.22 1005.76 1005.43 1005.24 1005.19 1005.31 1005.57 1005.97 1006.48 1007.10 1007.79 1008.54 1009.32 1010.14 1010.98 1011.84 1012.73 1013.65 1014.59 1015.56 1016.53 1017.51 1018.46 1019.37 1020.21 1020.96 1021.61 1022.14 1022.55 1022.84 1023.02 1023.09
1013.57 1012.79 1012.01 1011.25 1010.49 1009.74 1008.99 1008.25 1007.54 1006.87 1006.25 1005.72 1005.29 1004.99 1004.83 1004.82 1004.97 1005.26 1005.68 1006.22 1006.85 1007.56 1008.31 1009.10 1009.92 1010.76 1011.62 1012.51 1013.42 1014.36 1015.31 1016.27 1017.23 1018.16 1019.05 1019.87 1020.60 1021.23 1021.75 1022.16 1022.46 1022.65 1022.75
1013.29 1012.49 1011.70 1010.91 1010.13 1009.37 1008.61 1007.88 1007.17 1006.52 1005.93 1005.44 1005.05 1004.79 1004.68 1004.71 1004.89 1005.20 1005.65 1006.20 1006.83 1007.53 1008.28 1009.06 1009.87 1010.70 1011.55 1012.42 1013.31 1014.22 1015.14 1016.06 1016.98 1017.87 1018.71 1019.48 1020.18 1020.78 1021.28 1021.68 1021.97 1022.18 1022.31
1013.07 1012.27 1011.47 1010.68 1009.90 1009.14 1008.40 1007.69 1007.03 1006.42 1005.88 1005.44 1005.11 1004.90 1004.83 1004.90 1005.11 1005.44 1005.88 1006.43 1007.05 1007.73 1008.45 1009.21 1009.99 1010.79 1011.61 1012.44 1013.30 1014.16 1015.03 1015.90 1016.76 1017.58 1018.36 1019.08 1019.71 1020.27 1020.73 1021.11 1021.40 1021.61 1021.76
1012.92 1012.12 1011.34 1010.57 1009.81 1009.08 1008.38 1007.72 1007.11 1006.56 1006.09 1005.71 1005.45 1005.30 1005.28 1005.38 1005.60 1005.93 1006.37 1006.89 1007.48 1008.13 1008.81 1009.52 1010.26 1011.02 1011.79 1012.58 1013.38 1014.18 1014.99 1015.79 1016.57 1017.32 1018.02 1018.66 1019.23 1019.72 1020.14 1020.48 1020.75 1020.95 1021.10
1012.82 1012.05 1011.30 1010.56 1009.85 1009.17 1008.53 1007.93 1007.39 1006.92 1006.53 1006.22 1006.02 1005.93 1005.95 1006.08 1006.31 1006.63 1007.04 1007.53 1008.08 1008.67 1009.30 1009.96 1010.64 1011.34 1012.05 1012.78 1013.51 1014.25 1014.99 1015.71 1016.40 1017.07 1017.68 1018.24 1018.73 1019.16 1019.52 1019.81 1020.04 1020.22 1020.36
1012.76 1012.03 1011.32 1010.64 1009.99 1009.37 1008.80 1008.28 1007.83 1007.44 1007.12 1006.90 1006.76 1006.72 1006.77 1006.91 1007.14 1007.45 1007.83 1008.27 1008.77 1009.30 1009.87 1010.46 1011.08 1011.71 1012.36 1013.02 1013.68 1014.34 1015.00 1015.63 1016.24 1016.82 1017.35 1017.82 1018.24 1018.59 1018.89 1019.13 1019.31 1019.46 1019.56
Thickness
5520 5519 5519 5519 5518 5518 5517 5517 5517 5517 5518 5518 5518 5519 5519 5519 5519 5519 5519 5519 5519 5519 5518 5518 5518 5516 5515 5515 5514 5513 5512 5510 5508 5506 5503 5502 5500 5499 5497 5496 5495 5493 5491
5512 5512 5511 5511 5511 5510 5510 5510 5510 5510 5510 5510 5510 5510 5511 5511 5510 5510 5510 5509 5510 5509 5509 5508 5508 5507 5506 5505 5503 5502 5501 5500 5498 5495 5491 5489 5488 5486 5485 5484 5482 5480 5479
5504 5503 5502 5502 5502 5503 5503 5503 5502 5502 5501 5501 5501 5501 5502 5502 5502 5501 5501 5500 5500 5500 5499 5498 5498 5497 5496 5495 5493 5492 5490 5489 5487 5484 5480 5477 5475 5473 5471 5470 5468 5468 5467
5495 5494 5494 5494 5494 5494 5494 5494 5494 5493 5493 5493 5493 5493 5493 5493 5493 5493 5492 5491 5491 5490 5490 5489 5489 5488 5487 5485 5483 5481 5479 5477 5474 5471 5468 5465 5463 5460 5459 5457 5455 5455 5454
5486 5486 5486 5486 5486 5485 5485 5485 5485 5485 5485 5484 5484 5484 5484 5484 5484 5484 5483 5482 5481 5480 5479 5479 5478 5479 5478 5476 5474 5471 5469 5466 5462 5459 5456 5453 5451 5448 5447 5445 5443 5441 5440
5478 5477 5477 5477 5477 5477 5476 5476 5476 5476 5475 5475 5474 5474 5474 5475 5475 5474 5474 5473 5472 5470 5469 5468 5468 5467 5466 5465 5464 5462 5459 5456 5452 5449 5446 5444 5442 5439 5436 5433 5430 5426 5425
5468 5468 5468 5467 5467 5467 5467 5466 5466 5466 5466 5465 5465 5465 5464 5465 5465 5464 5464 5462 5461 5460 5458 5457 5456 5456 5454 5453 5452 5450 5449 5447 5446 5443 5439 5436 5433 5430 5425 5421 5417 5415 5414
5458 5458 5458 5458 5458 5457 5457 5456 5456 5456 5456 5455 5455 5455 5455 5455 5455 5454 5453 5451 5450 5449 5448 5446 5445 5445 5443 5442 5440 5438 5436 5435 5434 5433 5431 5428 5424 5420 5415 5412 5407 5403 5401
5448 5448 5448 5448 5448 5447 5447 5447 5446 5446 5446 5445 5445 5445 5445 5445 5444 5443 5442 5439 5438 5437 5436 5435 5435 5434 5433 5431 5429 5427 5425 5423 5422 5421 5419 5416 5412 5408 5403 5398 5393 5389 5387
5438 5438 5438 5438 5438 5438 5437 5437 5436 5436 5435 5435 5435 5435 5434 5433 5433 5432 5431 5429 5427 5426 5425 5425 5424 5423 5422 5420 5418 5416 5413 5412 5410 5408 5405 5403 5399 5395 5391 5386 5382 5377 5373
5427 5428 5428 5428 5428 5427 5427 5426 5426 5425 5425 5424 5423 5423 5423 5422 5422 5422 5420 5418 5417 5415 5414 5413 5413 5412 5411 5409 5407 5405 5403 5401 5398 5395 5392 5389 5385 5382 5378 5374 5370 5366 5362
5416 5417 5417 5417 5417 5417 5416 5415 5415 5414 5413 5412 5411 5411 5410 5410 5410 5410 5409 5408 5407 5405 5403 5402 5401 5400 5399 5398 5395 5394 5391 5389 5385 5382 5379 5375 5372 5369 5365 5362 5358 5355 5352
5404 5405 5406 5406 5406 5406 5405 5404 5402 5402 5400 5399 5398 5397 5397 5397 5397 5397 5397 5396 5395 5393 5392 5391 5390 5388 5387 5385 5383 5381 5378 5375 5372 5369 5367 5364 5360 5357 5353 5349 5345 5342 5339
5392 5393 5394 5394 5394 5394 5393 5392 5390 5389 5387 5386 5385 5384 5384 5383 5383 5383 5383 5383 5382 5381 5379 5378 5377 5375 5373 5371 5369 5367 5364 5362 5359 5357 5354 5351 5347 5343 5340 5336 5332 5329 5326
5380 5381 5381 5381 5381 5381 5380 5378 5377 5376 5375 5374 5373 5372 5371 5371 5372 5372 5371 5370 5369 5367 5366 5364 5361 5359 5358 5356 5354 5352 5349 5347 5345 5342 5340 5336 5333 5330 5327 5323 5320 5316 5313
5367 5367 5367 5368 5368 5367 5366 5365 5364 5363 5363 5362 5361 5360 5360 5361 5361 5360 5360 5359 5358 5356 5353 5350 5348 5346 5344 5342 5340 5338 5335 5333 5330 5328 5325 5323 5320 5318 5314 5310 5307 5304 5302
5354 5354 5354 5354 5354 5353 5352 5352 5351 5351 5350 5349 5349 5349 5348 5348 5348 5348 5347 5346 5345 5343 5340 5338 5336 5333 5331 5329 5327 5325 5322 5320 5317 5314 5312 5310 5307 5305 5301 5298 5296 5293 5290
5342 5342 5342 5342 5341 5340 5339 5338 5337 5337 5337 5336 5337 5336 5336 5336 5336 5335 5334 5333 5331 5330 5327 5326 5323 5321 5319 5316 5314 5312 5309 5307 5305 5303 5300 5298 5295 5292 5289 5287 5285 5283 5281
5329 5329 5329 5329 5329 5328 5327 5326 5325 5324 5324 5323 5323 5323 5324 5324 5323 5322 5321 5319 5318 5316 5314 5312 5310 5308 5307 5304 5302 5300 5298 5296 5294 5291 5289 5287 5284 5282 5280 5278 5276 5275 5272
5316 5317 5318 5317 5317 5316 5315 5314 5313 5312 5312 5311 5311 5310 5310 5310 5309 5308 5306 5305 5303 5302 5301 5300 5298 5296 5295 5293 5292 5290 5288 5286 5284 5282 5280 5278 5276 5273 5272 5270 5268 5265 5264
5304 5304 5305 5305 5304 5304 5303 5302 5301 5300 5300 5299 5298 5298 5299 5297 5296 5294 5293 5292 5291 5289 5289 5288 5286 5285 5284 5282 5281 5280 5279 5277 5276 5274 5272 5270 5268 5266 5264 5262 5260 5258 5256
5291 5291 5292 5292 5292 5291 5291 5290 5289 5288 5287 5287 5287 5287 5287 5285 5283 5282 5281 5280 5279 5278 5277 5277 5276 5275 5274 5273 5272 5271 5270 5268 5267 5266 5264 5262 5260 5258 5256 5254 5252 5250 5248
5279 5279 5280 5280 5279 5280 5279 5278 5277 5276 5276 5275 5275 5275 5274 5273 5272 5271 5270 5269 5269 5268 5267 5266 5266 5265 5264 5264 5263 5262 5261 5260 5259 5258 5256 5254 5252 5250 5248 5246 5244 5242 5240
5267 5267 5267 5267 5267 5266 5266 5266 5265 5265 5264 5264 5263 5263 5263 5262 5261 5260 5260 5259 5258 5258 5257 5256 5256 5256 5256 5255 5255 5254 5254 5253 5252 5250 5249 5247 5245 5243 5241 5239 5238 5236 5234
5255 5255 5255 5255 5254 5254 5254 5254 5254 5253 5253 5253 5253 5252 5252 5251 5251 5250 5249 5249 5248 5247 5247 5247 5247 5247 5247 5247 5247 5247 5247 5246 5245 5244 5243 5241 5239 5238 5236 5234 5232 5230 5228
5244 5243 5243 5243 5242 5242 5242 5242 5242 5242 5242 5242 5242 5241 5241 5241 5241 5240 5240 5239 5239 5239 5238 5238 5239 5239 5239 5240 5240 5240 5240 5240 5240 5239 5238 5237 5235 5233 5231 5229 5227 5225 5224